This is the latest recevied weather packets stored in our database for station/object K0WOI. If no packets are shown the sender has not sent any weather packets the latest 10 day(s).
| Time | Temp. | Humidity | Pressure | Rain* | Wind** | Luminosity | Snow |
|---|---|---|---|---|---|---|---|
| 1777958722 | 10° C | 65% | 1007.4 hPa | 0 mm | - | 0 W/m² | - |
| 1777958420 | 10° C | 63% | 1007.9 hPa | 0 mm | - | 0 W/m² | - |
| 1777958116 | 10° C | 65% | 1007.6 hPa | 0 mm | - | 0 W/m² | - |
| 1777957815 | 10° C | 66% | 1007 hPa | 0 mm | - | 0 W/m² | - |
| 1777957512 | 10.56° C | 60% | 1006.9 hPa | 0 mm | - | 0 W/m² | - |
| 1777957210 | 10.56° C | 60% | 1007.3 hPa | 0 mm | - | 0 W/m² | - |
| 1777956906 | 10.56° C | 59% | 1007.2 hPa | 0 mm | - | 0 W/m² | - |
| 1777956603 | 10.56° C | 56% | 1007.2 hPa | 0 mm | - | 0 W/m² | - |
| 1777956300 | 10.56° C | 55% | 1007.2 hPa | 0 mm | - | 0 W/m² | - |
| 1777955996 | 10.56° C | 59% | 1006.6 hPa | 0 mm | - | 0 W/m² | - |
| 1777955693 | 10° C | 60% | 1006.4 hPa | 0 mm | - | 0 W/m² | - |
| 1777955389 | 10° C | 63% | 1006.3 hPa | 0 mm | - | 0 W/m² | - |
| 1777955086 | 10° C | 65% | 1006.4 hPa | 0 mm | - | 0 W/m² | - |
| 1777954783 | 10° C | 66% | 1006.3 hPa | 0 mm | - | 0 W/m² | - |
| 1777954480 | 10.56° C | 66% | 1006.6 hPa | 0 mm | - | 0 W/m² | - |
| 1777954177 | 10.56° C | 66% | 1006.7 hPa | 0 mm | - | 0 W/m² | - |
| 1777953875 | 10.56° C | 69% | 1006.7 hPa | 0 mm | - | 0 W/m² | - |
| 1777953571 | 10.56° C | 66% | 1006.7 hPa | 0 mm | - | 0 W/m² | - |
| 1777953267 | 11.11° C | 65% | 1007 hPa | 0 mm | - | 0 W/m² | - |
| 1777952965 | 11.67° C | 58% | 1006.9 hPa | 0 mm | - | 0 W/m² | - |
| 1777952661 | 12.22° C | 53% | 1007.3 hPa | 0 mm | - | 0 W/m² | - |
| 1777952358 | 12.78° C | 50% | 1007.1 hPa | 0 mm | - | 0 W/m² | - |
| 1777952055 | 12.78° C | 48% | 1007.4 hPa | 0 mm | - | 0 W/m² | - |
| 1777951753 | 13.33° C | 45% | 1007.1 hPa | 0 mm | - | 0 W/m² | - |
| 1777951450 | 13.33° C | 45% | 1006.6 hPa | 0 mm | - | 0 W/m² | - |
* Rain latest hour (hover to see other rain measurements)
** Current wind speed in m/s (hover to see current wind gust speed)